EW1931 Weather Reports


time (UTC)temp
F
wind
direction
speed
knots
gust
knots
rain 1hr
in
rain 24hr
in
rain mn
in
humidity
%
barometer
mb
20260906064531 57 5 13.9 21.7 0.00 0.01 0.00 82 1015.5
20260906063034 57 15 15.6 21.7 0.00 0.01 0.00 82 1015.7
20260906061530 57 12 14.8 19.1 0.00 0.01 0.00 82 1015.6
20260906060027 57 20 13.9 19.1 0.00 0.01 0.00 81 1015.7
20260906054524 58 9 13.9 20.0 0.00 0.01 0.00 80 1015.8
20260906053009 58 16 14.8 20.9 0.00 0.01 0.00 79 1015.6
20260906051504 58 15 14.8 20.0 0.00 0.01 0.00 77 1015.6
20260906050047 58 13 15.6 20.9 0.00 0.01 0.00 76 1015.6
20260906044546 59 13 14.8 21.7 0.00 0.01 0.00 75 1015.4
20260906043025 59 360 14.8 22.6 0.00 0.01 0.00 74 1015.1
20260906041523 59 13 18.2 25.2 0.00 0.01 0.00 73 1014.7
20260906040010 59 5 17.4 22.6 0.00 0.01 0.00 73 1015.0
20260906034502 59 315 14.8 22.6 0.00 0.01 0.00 72 1015.1
20260906033048 60 318 14.8 20.9 0.00 0.01 0.00 71 1015.1
20260906031543 60 5 13.0 20.9 0.00 0.01 0.00 70 1014.7
20260906030040 60 5 13.9 22.6 0.00 0.01 0.00 69 1014.3
20260906024547 61 309 16.5 25.2 0.00 0.01 0.00 68 1014.0
20260906023035 61 5 16.5 24.3 0.00 0.01 0.00 67 1014.0
20260906021533 62 360 14.8 21.7 0.00 0.01 0.00 66 1014.2
20260906020030 63 331 14.8 23.5 0.00 0.01 0.00 65 1014.1
20260906014538 64 360 16.5 22.6 0.00 0.01 0.00 62 1014.0
20260906013037 65 10 13.9 20.9 0.00 0.01 0.00 60 1014.0
20260906011521 67 22 16.5 22.6 0.00 0.01 0.00 56 1013.8
20260906010025 68 17 14.8 20.9 0.00 0.01 0.00 52 1013.7
20260906004519 71 349 15.6 21.7 0.00 0.01 0.00 47 1013.7
20260906003018 74 17 11.3 14.8 0.00 0.01 0.00 38 1013.8
20260906001522 74 5 9.6 17.4 0.00 0.01 0.00 36 1013.7
20260906000057 75 13 11.3 15.6 0.00 0.01 0.00 35 1013.8
20260905234604 75 40 10.4 14.8 0.00 0.01 0.00 35 1013.7
20260905233038 75 65 5.2 13.9 0.00 0.01 0.00 35 1013.7
20260905231540 75 19 7.0 18.2 0.00 0.01 0.00 34 1013.8
20260905230018 75 38 5.2 18.2 0.00 0.01 0.00 34 1013.8
20260905224519 76 48 7.0 14.8 0.00 0.01 0.00 34 1013.6
20260905223059 76 347 7.0 13.9 0.00 0.01 0.00 34 1013.6
20260905221615 76 46 7.0 13.0 0.00 0.01 0.00 34 1013.7
20260905220041 76 52 7.8 18.2 0.00 0.01 0.00 35 1013.7
20260905214539 76 55 2.6 22.6 0.00 0.01 0.00 35 1013.9
20260905213020 75 347 1.7 7.0 0.00 0.01 0.00 37 1014.1
20260905211532 75 17 8.7 15.6 0.00 0.01 0.00 36 1014.0
20260905210100 75 49 7.8 10.4 0.00 0.01 0.00 37 1014.2
20260905204557 75 20 6.1 12.2 0.00 0.01 0.00 37 1014.1
20260905203042 74 335 6.1 9.6 0.00 0.01 0.00 37 1014.2
20260905201539 74 25 7.8 12.2 0.00 0.01 0.00 37 1014.4
20260905200020 73 327 6.1 13.0 0.00 0.01 0.00 38 1014.4
20260905194517 73 330 8.7 14.8 0.00 0.01 0.00 38 1014.5
20260905193111 72 347 7.0 14.8 0.00 0.01 0.00 39 1014.6
20260905191556 72 11 6.1 12.2 0.00 0.01 0.00 40 1014.8
20260905190036 72 319 9.6 13.0 0.00 0.01 0.00 39 1015.0
20260905184542 72 305 7.8 12.2 0.00 0.01 0.00 41 1015.1
20260905183015 71 311 11.3 14.8 0.00 0.01 0.00 43 1015.2
20260905181513 70 258 5.2 13.0 0.00 0.01 0.00 45 1015.4
20260905180055 70 23 7.8 12.2 0.00 0.01 0.00 47 1015.3
20260905174602 70 5 7.0 13.9 0.00 0.01 0.00 47 1015.5
20260905173032 69 320 5.2 9.6 0.00 0.01 0.00 48 1015.4
20260905171533 68 341 4.3 9.6 0.00 0.01 0.00 49 1015.2
20260905170014 67 19 6.1 8.7 0.00 0.01 0.00 50 1015.1
20260905164510 66 5 6.1 8.7 0.00 0.01 0.00 55 1015.2
20260905163048 66 333 5.2 10.4 0.00 0.01 0.01 59 1015.0
20260905161559 65 318 7.8 12.2 0.00 0.01 0.01 62 1015.0
20260905160031 65 323 7.8 10.4 0.00 0.01 0.01 62 1015.2
20260905154529 64 346 7.0 12.2 0.00 0.01 0.01 62 1015.0
20260905153013 63 324 9.6 13.0 0.00 0.01 0.01 65 1014.9
20260905151511 60 315 7.8 13.9 0.00 0.01 0.01 73 1015.0
20260905150054 60 302 9.6 15.6 0.00 0.01 0.01 75 1014.9
20260905144552 58 303 13.0 18.2 0.00 0.01 0.01 75 1014.8
20260905143036 57 299 9.6 13.9 0.00 0.01 0.01 76 1015.1
20260905141536 56 311 8.7 12.2 0.00 0.01 0.01 78 1014.7
20260905140016 54 298 7.8 13.0 0.00 0.01 0.01 81 1014.8
20260905134516 52 246 5.2 7.0 0.00 0.01 0.01 85 1015.1
20260905133058 52 263 4.3 7.0 0.00 0.01 0.01 84 1015.3
20260905131606 53 224 4.3 7.0 0.01 0.01 0.01 83 1015.0
20260905130037 52 15 5.2 11.3 0.01 0.01 0.01 82 1013.8
20260905124537 51 15 7.8 12.2 0.01 0.01 0.01 82 1013.3
20260905123021 52 294 6.1 9.6 0.01 0.01 0.01 83 1013.5
20260905121525 52 14 4.3 9.6 0.00 0.00 0.00 82 1014.6
20260905120100 53 15 7.8 11.3 0.00 0.00 0.00 76 1015.1
20260905114556 54 243 8.7 10.4 0.00 0.00 0.00 73 1014.6
20260905113037 53 284 5.2 8.7 0.00 0.00 0.00 71 1013.6
20260905111543 54 287 6.1 8.7 0.00 0.00 0.00 70 1013.7
20260905110019 53 290 8.7 11.3 0.00 0.00 0.00 71 1013.7
20260905104516 52 275 5.2 7.8 0.00 0.00 0.00 71 1013.7
20260905103058 52 302 7.8 9.6 0.00 0.00 0.00 72 1013.2
20260905101602 53 288 8.7 12.2 0.00 0.00 0.00 69 1013.1
20260905100040 54 310 7.0 9.6 0.00 0.00 0.00 68 1013.0
20260905094540 54 336 6.1 8.7 0.00 0.00 0.00 67 1013.0
20260905093022 53 332 7.0 8.7 0.00 0.00 0.00 71 1013.1
20260905091522 50 360 5.2 7.8 0.00 0.00 0.00 72 1012.9
20260905090003 51 355 5.2 7.0 0.00 0.00 0.00 70 1013.0
20260905084502 51 360 4.3 6.1 0.00 0.00 0.00 70 1012.9
20260905083101 51 340 6.1 9.6 0.00 0.00 0.00 69 1012.5
20260905081540 52 321 4.3 7.8 0.00 0.00 0.00 68 1012.7
20260905080042 53 305 6.1 7.8 0.00 0.00 0.00 67 1013.1
20260905074521 53 284 6.1 7.8 0.00 0.00 0.00 67 1013.4
20260905073022 52 285 6.1 7.0 0.00 0.00 0.00 66 1013.3
20260905071502 52 290 6.1 7.0 0.00 0.00 0.00 66 1013.3
20260905070110 53 290 7.0 8.7 0.00 0.00 0.00 64 1013.0